Location: Bun Machan
(52.1403°N, 7.3744°W)
Time: 18:08:25
(UTC+00:00)

Cosmos 1140 Rocket - Pass Details

Date: 14 July 2020
Orbit: 744 x 768 km, 74.1° (Epoch: 13 August)

Event Time Altitude Azimuth Distance (km) Brightness Sun altitude
Exits shadow 02:32:16 16° 194° (SSW) 1,920 5.0 -12.0°
Maximum altitude 02:36:28 73° 112° (ESE) 802 3.6 -11.6°
Drops below altitude 10° 02:41:43 10° 28° (NNE) 2,316 7.6 -11.3°
Sets 02:44:06 0° 27° (NNE) 3,249 9.0 -11.1°
